Location: Unspecified
(41.9031°N, 12.4386°E)
Time: 06:30:48
(UTC+02:00)

ISS - Pass Details

Date: 06 August 2020
Orbit: 418 x 420 km, 51.6° (Epoch: 12 August)

Event Time Altitude Azimuth Distance (km) Brightness Sun altitude
Rises 21:15:06 0° 284° (WNW) 2,366 1.7 -9.5°
Reaches altitude 10° 21:18:57 10° 240° (WSW) 1,496 -0.6 -10.1°
Maximum altitude 21:19:26 10° 232° (SW) 1,481 -0.7 -10.2°
Drops below altitude 10° 21:19:55 10° 223° (SW) 1,494 -0.8 -10.3°
Enters shadow 21:23:13 - 182° (S) 2,182 -0.4 -10.8°
